Tracking 17694 objects as of 29-May-2016
HD Live streaming from Space Station
objects crossing your sky now

IRIDIUM 33 DEB

Track IRIDIUM 33 DEB now!
10-day predictions


NORAD ID: 34150
Int'l Code: 1997-051ED
Perigee: 675.8 km
Apogee: 789.8 km
Inclination: 86.5 °
Period: 99.3 minutes
Semi major axis: 7103 km
RCS: 0.0227 m2 (small)
Launch date: September 14, 1997
Source: United States (US)
Launch site: TYURATAM MISSILE AND SPACE COMPLEX (TTMTR)

Note: This is SATELLITE DEBRIS
Your satellite tracking list
Your tracking list is empty





NASA's NSSDC Master Catalog

Two Line Element Set (TLE):
1 34150U 97051ED  16149.64690626 +.00004156 +00000-0 +10231-2 0  9990
2 34150 086.4887 127.9446 0080212 125.7812 286.0043 14.50072459379883
Source of the keplerian elements: AFSPC

N2YO: 525